{"data":{"norad_id":62911,"epoch":"2026-05-24T16:24:45.980064Z","epoch_age_seconds":102594,"freshness":"FRESH","line1":"1 62911U 25027E   26144.68386551  .00226130  00000+0  17058-2 0  9990","line2":"2 62911  43.0006 249.6305 0002581  37.8138 322.2911 15.71012315 75142","mean_motion":15.71012315,"eccentricity":0.0002581,"inclination_deg":43.0006,"raan_deg":249.6305,"arg_perigee_deg":37.8138,"mean_anomaly_deg":322.2911,"bstar":0.0017058,"rev_number":7514,"period_min":91.660643665928,"perigee_km":354.26451663649,"apogee_km":357.74067949701,"semimajor_km":6734.1395980668,"source":"CELESTRAK","updated_at":"2026-05-25T13:38:19.818701Z"}}